Main page
Satellite images Climate Cyclones Lightning AirportsFAQ Languages Contact Newsletter About
Weather : Europe Africa North America South America Asia Australia-Oceania Others

pattaya-th, Pattaya-Rayong, U-Tapao International Airport

48477

latitude: , longitude: Thailand, elevation: 12-38N m


METAR: VTBU 211530Z 16003KT 4000 BR FEW018CB BKN100 29/24 Q1011 NOSIG